EW4271 Weather Reports


Display with metric or nautical units.
time (UTC)temp
F
wind
direction
speed
MPH
gust
MPH
rain 1hr
in
rain 24hr
in
rain mn
in
humidity
%
barometer
mb
20260506153129 48 29 5.0 12.0 0.00 0.01 0.00 53 1016.6
20260506152623 47 350 3.0 12.0 0.00 0.01 0.00 53 1016.7
20260506152137 48 14 4.0 12.0 0.00 0.01 0.00 53 1016.8
20260506151630 48 132 1.0 6.0 0.00 0.01 0.00 56 1016.8
20260506151123 48 213 2.0 5.0 0.00 0.01 0.00 57 1016.6
20260506150637 47 163 2.0 4.0 0.00 0.01 0.00 58 1016.6
20260506150132 46 248 1.0 3.0 0.00 0.01 0.00 58 1016.7
20260506145630 46 75 2.0 9.0 0.00 0.01 0.00 61 1016.7
20260506145124 46 30 6.0 10.0 0.00 0.01 0.00 57 1016.7
20260506144638 46 36 6.0 10.0 0.00 0.01 0.00 56 1016.8
20260506144132 46 34 1.0 6.0 0.00 0.01 0.00 57 1016.8
20260506143625 46 56 3.0 5.0 0.00 0.01 0.00 60 1016.8
20260506143139 45 109 2.0 6.0 0.00 0.01 0.00 60 1016.7
20260506142633 44 61 4.0 6.0 0.00 0.01 0.00 60 1016.7
20260506142127 44 43 0.0 5.0 0.00 0.01 0.00 60 1016.6
20260506141625 44 61 4.0 5.0 0.00 0.01 0.00 59 1016.6
20260506141158 44 9 4.0 5.0 0.00 0.01 0.00 58 1016.6
20260506140651 45 355 1.0 5.0 0.00 0.01 0.00 58 1016.4
20260506140123 45 55 3.0 6.0 0.00 0.01 0.00 57 1016.3
20260506135635 44 146 3.0 7.0 0.00 0.01 0.00 59 1016.2
20260506135130 44 133 2.0 7.0 0.00 0.01 0.00 60 1016.2
20260506134623 43 43 2.0 7.0 0.00 0.01 0.00 59 1016.2
20260506134136 43 83 3.0 10.0 0.00 0.01 0.00 61 1016.3
20260506133630 43 207 2.0 10.0 0.00 0.01 0.00 61 1016.4
20260506133123 43 183 2.0 6.0 0.00 0.01 0.00 62 1016.4
20260506132641 42 108 3.0 8.0 0.00 0.01 0.00 61 1016.4
20260506132134 42 276 4.0 9.0 0.00 0.01 0.00 60 1016.1
20260506131627 42 132 1.0 9.0 0.00 0.01 0.00 61 1016.1
20260506131142 42 76 3.0 9.0 0.00 0.01 0.00 61 1016.1
20260506130635 42 90 4.0 10.0 0.00 0.01 0.00 61 1016.1
20260506130128 42 216 3.0 11.0 0.00 0.01 0.00 63 1016.0
20260506125701 41 174 3.0 11.0 0.00 0.01 0.00 63 1016.0
20260506125134 41 39 3.0 10.0 0.00 0.01 0.00 64 1016.0
20260506124649 41 149 5.0 8.0 0.00 0.01 0.00 67 1016.0
20260506124125 41 156 0.0 5.0 0.00 0.01 0.00 69 1015.9
20260506123639 41 173 2.0 5.0 0.00 0.01 0.00 69 1015.9
20260506123132 41 83 0.0 0.0 0.00 0.01 0.00 66 1015.9
20260506122626 41 81 0.0 2.0 0.00 0.01 0.00 66 1015.8
20260506122200 41 81 1.0 2.0 0.00 0.01 0.00 66 1015.7
20260506121633 41 81 1.0 3.0 0.00 0.01 0.00 66 1015.7
20260506121146 41 319 1.0 3.0 0.00 0.01 0.00 65 1015.7
20260506120638 41 254 2.0 3.0 0.00 0.01 0.00 64 1015.4
20260506120153 41 136 1.0 5.0 0.00 0.01 0.00 64 1015.4
20260506115626 41 46 1.0 5.0 0.00 0.01 0.00 64 1015.4
20260506115124 42 136 2.0 11.0 0.00 0.01 0.00 64 1015.4
20260506114638 42 57 2.0 11.0 0.00 0.01 0.00 63 1015.3
20260506114132 42 26 3.0 11.0 0.00 0.01 0.00 62 1015.2
20260506113625 42 80 2.0 12.0 0.00 0.01 0.00 62 1015.0
20260506113138 42 267 4.0 12.0 0.00 0.01 0.00 62 1014.9
20260506112632 41 75 4.0 11.0 0.00 0.01 0.00 63 1014.8
20260506112125 41 298 3.0 14.0 0.00 0.01 0.00 65 1015.0
20260506111623 41 241 5.0 14.0 0.00 0.01 0.00 65 1015.0
20260506111138 41 142 1.0 8.0 0.00 0.01 0.00 66 1015.0
20260506110630 41 345 2.0 8.0 0.00 0.01 0.00 66 1015.0
20260506110125 41 349 1.0 7.0 0.00 0.01 0.00 65 1015.0
20260506105637 41 335 2.0 6.0 0.00 0.01 0.00 65 1015.1
20260506105131 40 186 2.0 7.0 0.00 0.01 0.00 65 1015.2
20260506104624 40 232 0.0 5.0 0.00 0.01 0.00 66 1015.4
20260506104137 40 269 1.0 5.0 0.00 0.01 0.00 66 1015.4
20260506103631 40 44 2.0 5.0 0.00 0.01 0.00 66 1015.6
20260506103129 40 237 1.0 3.0 0.00 0.01 0.00 65 1015.6
20260506102623 41 221 0.0 3.0 0.00 0.01 0.00 65 1015.6
20260506102137 41 215 2.0 3.0 0.00 0.01 0.00 64 1015.5
20260506101651 41 57 0.0 2.0 0.00 0.01 0.00 63 1015.4
20260506101124 41 57 0.0 3.0 0.00 0.01 0.00 63 1015.4
20260506100637 41 59 0.0 8.0 0.00 0.01 0.00 63 1015.3
20260506100130 41 45 4.0 8.0 0.00 0.01 0.00 62 1015.4
20260506095643 41 57 4.0 6.0 0.00 0.01 0.00 62 1015.5
20260506095137 41 135 1.0 8.0 0.00 0.01 0.00 62 1015.4
20260506094635 41 102 3.0 8.0 0.00 0.01 0.00 62 1015.4
20260506094127 41 63 2.0 4.0 0.00 0.01 0.00 63 1015.3
20260506093641 41 144 3.0 4.0 0.00 0.01 0.00 63 1015.1
20260506093155 41 41 1.0 6.0 0.00 0.01 0.00 63 1015.1
20260506092628 41 56 3.0 6.0 0.00 0.01 0.00 63 1015.1
20260506092122 41 96 2.0 6.0 0.00 0.01 0.00 64 1015.0
20260506091637 41 120 2.0 5.0 0.00 0.01 0.00 63 1015.0
20260506091130 41 147 1.0 5.0 0.00 0.01 0.00 62 1015.0
20260506090628 42 72 1.0 5.0 0.00 0.01 0.00 62 1015.0
20260506090123 42 209 1.0 5.0 0.00 0.01 0.00 62 1015.0
20260506085636 42 92 1.0 4.0 0.00 0.01 0.00 62 1015.1
20260506085150 42 177 2.0 8.0 0.00 0.01 0.00 61 1015.2
20260506084643 42 219 3.0 8.0 0.00 0.01 0.00 62 1015.1
20260506084135 42 21 3.0 8.0 0.00 0.01 0.00 62 1015.1
20260506083648 42 282 3.0 7.0 0.00 0.01 0.00 64 1015.2
20260506083140 42 170 1.0 6.0 0.00 0.01 0.00 63 1015.4
20260506082655 42 271 3.0 6.0 0.00 0.01 0.00 63 1015.4
20260506082127 42 153 0.0 5.0 0.00 0.01 0.00 63 1015.4
20260506081641 42 162 3.0 7.0 0.00 0.01 0.00 62 1015.4
20260506081135 43 128 2.0 7.0 0.00 0.01 0.00 62 1015.4
20260506080653 42 250 2.0 4.0 0.00 0.01 0.00 62 1015.3
20260506080125 42 5 2.0 7.0 0.00 0.01 0.00 62 1015.2
20260506073129 43 222 3.0 9.0 0.00 0.01 0.00 62 1015.3
20260506072647 43 103 0.0 5.0 0.00 0.01 0.00 63 1015.4
20260506072140 43 157 2.0 5.0 0.00 0.01 0.00 64 1015.4
20260506071633 43 184 1.0 4.0 0.00 0.01 0.00 63 1015.5
20260506071148 43 188 0.0 4.0 0.00 0.01 0.00 64 1015.6
20260506070641 43 286 1.0 5.0 0.00 0.01 0.00 64 1015.8
20260506070136 43 350 1.0 8.0 0.00 0.01 0.00 64 1015.7
20260506062129 44 103 0.0 3.0 0.00 0.01 0.00 62 1015.5
20260506061623 44 279 1.0 6.0 0.00 0.01 0.00 62 1015.4
20260506061137 44 317 2.0 6.0 0.00 0.01 0.00 63 1015.4
20260506060630 44 311 3.0 7.0 0.00 0.01 0.00 62 1015.4
20260506060128 44 307 1.0 11.0 0.00 0.01 0.00 63 1015.4
20260506051146 45 300 3.0 13.0 0.00 0.01 0.01 64 1014.8
20260506050658 45 34 2.0 10.0 0.00 0.01 0.01 66 1015.1
20260506050131 45 49 2.0 7.0 0.00 0.01 0.01 66 1015.6
20260506044631 45 298 2.0 6.0 0.00 0.01 0.01 67 1015.2
20260506044123 45 221 2.0 6.0 0.00 0.01 0.01 68 1015.5
20260506043640 45 340 2.0 6.0 0.00 0.01 0.01 68 1015.5
20260506043153 45 211 0.0 4.0 0.00 0.01 0.01 68 1015.7
20260506042636 45 316 1.0 4.0 0.00 0.01 0.01 69 1015.5
20260506042127 45 197 1.0 5.0 0.00 0.01 0.01 69 1015.4
20260506041638 45 255 2.0 6.0 0.00 0.01 0.01 69 1015.2
20260506041130 45 273 1.0 4.0 0.00 0.01 0.01 70 1015.2
20260506040624 44 243 1.0 5.0 0.00 0.01 0.01 70 1014.9
20260506040138 44 221 2.0 5.0 0.00 0.01 0.01 72 1014.7
20260506035651 44 90 2.0 6.0 0.00 0.01 0.01 74 1014.7
20260506035125 43 337 2.0 11.0 0.00 0.01 0.01 75 1014.4
20260506034623 43 5 3.0 11.0 0.00 0.01 0.01 76 1014.3
20260506034136 43 26 2.0 5.0 0.01 0.01 0.01 78 1014.5
20260506033630 43 51 1.0 5.0 0.01 0.01 0.01 82 1014.5
20260506033144 43 154 0.0 0.0 0.01 0.01 0.01 80 1014.9
20260506032636 43 154 0.0 0.0 0.01 0.01 0.01 79 1015.2
20260506032130 43 275 0.0 2.0 0.01 0.01 0.01 79 1015.5
20260506031645 44 177 0.0 4.0 0.01 0.01 0.01 79 1015.4
20260506031136 43 254 1.0 5.0 0.01 0.01 0.01 78 1015.5
20260506030630 43 46 1.0 6.0 0.01 0.01 0.01 78 1015.2
20260506030127 43 252 1.0 4.0 0.01 0.01 0.01 78 1015.0
20260506025622 44 321 2.0 12.0 0.01 0.01 0.01 77 1014.7
20260506025156 44 273 2.0 15.0 0.01 0.01 0.01 76 1014.6
20260506024648 44 261 3.0 15.0 0.01 0.01 0.01 73 1014.2
20260506024141 45 88 3.0 12.0 0.00 0.00 0.00 70 1014.0
20260506023635 44 105 1.0 6.0 0.00 0.00 0.00 71 1014.2
20260506023129 44 288 2.0 6.0 0.00 0.00 0.00 71 1014.3
20260506022644 45 200 1.0 14.0 0.00 0.00 0.00 70 1014.5
20260506022156 45 312 4.0 14.0 0.00 0.00 0.00 69 1014.5
20260506021629 45 25 4.0 11.0 0.00 0.00 0.00 70 1014.0
20260506021144 45 355 4.0 9.0 0.00 0.00 0.00 72 1013.5
20260506020636 44 284 1.0 8.0 0.00 0.00 0.00 72 1013.1
20260506020129 44 23 2.0 8.0 0.00 0.00 0.00 73 1013.1
20260506015642 43 320 2.0 4.0 0.00 0.00 0.00 78 1013.1
20260506015155 44 120 2.0 3.0 0.00 0.00 0.00 77 1013.3
20260506014629 44 205 1.0 3.0 0.00 0.00 0.00 77 1013.7
20260506014141 44 182 1.0 8.0 0.00 0.00 0.00 76 1013.8
20260506013656 44 281 0.0 8.0 0.00 0.00 0.00 76 1014.1
20260506013129 45 230 3.0 7.0 0.00 0.00 0.00 73 1014.2
20260506012623 46 313 2.0 10.0 0.00 0.00 0.00 69 1014.0
20260506012140 48 315 3.0 10.0 0.00 0.00 0.00 64 1014.0
20260506011654 50 284 3.0 9.0 0.00 0.00 0.00 59 1014.0
20260506011127 50 360 3.0 9.0 0.00 0.00 0.00 53 1013.4
20260506010701 50 251 2.0 7.0 0.00 0.00 0.00 55 1013.3
20260506010133 50 209 1.0 4.0 0.00 0.00 0.00 55 1013.0
20260506005627 51 46 2.0 4.0 0.00 0.00 0.00 54 1012.6
20260506005140 51 246 2.0 5.0 0.00 0.00 0.00 54 1012.8
20260506004634 51 232 3.0 8.0 0.00 0.00 0.00 53 1012.9
20260506004148 51 255 4.0 8.0 0.00 0.00 0.00 51 1012.6
20260506003626 52 315 1.0 7.0 0.00 0.00 0.00 50 1012.5
20260506003140 52 292 2.0 6.0 0.00 0.00 0.00 50 1012.4
20260506002633 53 39 3.0 6.0 0.00 0.00 0.00 49 1012.6
20260506002148 54 283 3.0 7.0 0.00 0.00 0.00 47 1012.6
20260506001640 54 313 3.0 10.0 0.00 0.00 0.00 43 1012.7
20260506001135 55 11 3.0 10.0 0.00 0.00 0.00 42 1012.5
20260506000628 56 70 3.0 6.0 0.00 0.00 0.00 42 1012.4
20260506000141 56 34 3.0 5.0 0.00 0.00 0.00 42 1012.2
20260505235631 56 318 2.0 11.0 0.00 0.00 0.00 42 1012.3
20260505235125 57 300 4.0 11.0 0.00 0.00 0.00 42 1012.2
20260505234639 56 220 2.0 9.0 0.00 0.00 0.00 43 1011.9
20260505234153 56 264 3.0 11.0 0.00 0.00 0.00 44 1011.8
20260505233625 55 355 4.0 11.0 0.00 0.00 0.00 45 1011.7
20260505233140 55 96 1.0 5.0 0.00 0.00 0.00 48 1011.8
20260505232634 55 305 2.0 5.0 0.00 0.00 0.00 47 1011.7
20260505232128 55 316 1.0 6.0 0.00 0.00 0.00 47 1011.7
20260505231640 55 86 2.0 6.0 0.00 0.00 0.00 46 1012.0
20260505231134 55 310 1.0 5.0 0.00 0.00 0.00 48 1012.3
20260505230632 55 10 3.0 13.0 0.00 0.00 0.00 49 1012.5
20260505230125 56 326 2.0 4.0 0.00 0.00 0.00 43 1012.4
20260505225640 56 101 1.0 4.0 0.00 0.00 0.00 43 1012.1
20260505225133 56 228 1.0 9.0 0.00 0.00 0.00 41 1012.0
20260505224627 57 306 2.0 9.0 0.00 0.00 0.00 41 1011.8
20260505224141 57 360 2.0 6.0 0.00 0.00 0.00 40 1011.7
20260505223635 57 347 3.0 6.0 0.00 0.00 0.00 42 1011.9
20260505223133 58 76 4.0 9.0 0.00 0.00 0.00 42 1011.7
20260505222626 58 112 5.0 10.0 0.00 0.00 0.00 42 1011.5
20260505222141 58 267 2.0 5.0 0.00 0.00 0.00 42 1011.7
20260505221634 58 148 1.0 6.0 0.00 0.00 0.00 44 1011.8
20260505221127 57 109 1.0 4.0 0.00 0.00 0.00 44 1011.9
20260505220622 57 150 1.0 5.0 0.00 0.00 0.00 43 1012.1
20260505220135 57 292 1.0 3.0 0.00 0.00 0.00 43 1012.0
20260505215629 57 129 1.0 4.0 0.00 0.00 0.00 42 1012.0
20260505215143 57 147 1.0 6.0 0.00 0.00 0.00 42 1012.1
20260505214640 57 139 2.0 6.0 0.00 0.00 0.00 41 1012.2
20260505214154 57 134 1.0 6.0 0.00 0.00 0.00 42 1012.3
20260505213627 56 58 1.0 5.0 0.00 0.00 0.00 43 1012.3
20260505213141 57 58 1.0 5.0 0.00 0.00 0.00 41 1012.4
20260505212634 57 344 0.0 3.0 0.00 0.00 0.00 42 1012.6
20260505212128 57 346 1.0 3.0 0.00 0.00 0.00 42 1012.6
20260505211623 57 49 2.0 6.0 0.00 0.00 0.00 41 1012.7
20260505211136 58 55 2.0 6.0 0.00 0.00 0.00 40 1012.9
20260505210634 58 242 2.0 5.0 0.00 0.00 0.00 39 1012.9
20260505210128 58 73 2.0 5.0 0.00 0.00 0.00 40 1012.8
20260505205622 58 205 2.0 8.0 0.00 0.00 0.00 40 1013.0
20260505205157 58 207 2.0 8.0 0.00 0.00 0.00 41 1013.0
20260505204630 58 103 2.0 5.0 0.00 0.00 0.00 42 1013.1
20260505204123 57 259 2.0 5.0 0.00 0.00 0.00 43 1013.2
20260505203637 56 144 1.0 4.0 0.00 0.00 0.00 47 1013.3
20260505203130 55 275 2.0 5.0 0.00 0.00 0.00 47 1013.4
20260505202628 55 297 1.0 5.0 0.00 0.00 0.00 50 1013.7
20260505202121 55 63 2.0 5.0 0.00 0.00 0.00 51 1013.9
20260505201635 55 340 2.0 7.0 0.00 0.00 0.00 47 1013.8
20260505201129 55 212 1.0 7.0 0.00 0.00 0.00 47 1013.8
20260505200623 55 259 1.0 5.0 0.00 0.00 0.00 47 1013.7
20260505200158 55 288 2.0 5.0 0.00 0.00 0.00 49 1013.6
20260505195630 55 16 2.0 5.0 0.00 0.00 0.00 49 1013.6
20260505195125 55 36 3.0 5.0 0.00 0.00 0.00 48 1013.8
20260505194622 55 11 2.0 7.0 0.00 0.00 0.00 50 1013.8
20260505194136 55 324 2.0 8.0 0.00 0.00 0.00 50 1013.9
20260505193631 55 12 2.0 5.0 0.00 0.00 0.00 53 1013.8
20260505193122 55 315 3.0 5.0 0.00 0.00 0.00 49 1013.8
20260505192637 54 42 1.0 4.0 0.00 0.00 0.00 50 1013.8
20260505192130 54 275 1.0 5.0 0.00 0.00 0.00 50 1013.9
20260505191644 54 296 2.0 10.0 0.00 0.00 0.00 52 1013.9
20260505191134 54 236 3.0 10.0 0.00 0.00 0.00 51 1013.9
20260505190629 54 294 2.0 4.0 0.00 0.00 0.00 57 1014.0
20260505190126 53 165 1.0 5.0 0.00 0.00 0.00 60 1014.0
20260505185640 52 14 1.0 6.0 0.00 0.00 0.00 66 1014.0
20260505185133 52 289 4.0 6.0 0.00 0.00 0.00 59 1014.2
20260505184627 51 333 3.0 6.0 0.00 0.00 0.00 60 1014.2
20260505184141 51 32 1.0 4.0 0.00 0.00 0.00 62 1014.1
20260505183635 51 302 2.0 4.0 0.00 0.00 0.00 60 1014.2
20260505183129 52 296 1.0 4.0 0.00 0.00 0.00 59 1014.1
20260505182643 53 315 1.0 3.0 0.00 0.00 0.00 56 1014.1
20260505182140 53 360 1.0 3.0 0.00 0.00 0.00 51 1014.0
20260505181633 53 273 1.0 4.0 0.00 0.00 0.00 51 1013.9
20260505181128 54 11 2.0 4.0 0.00 0.00 0.00 50 1013.7
20260505180621 54 81 1.0 4.0 0.00 0.00 0.00 49 1013.7
20260505180136 54 137 0.0 4.0 0.00 0.00 0.00 43 1013.7
20260505175649 54 277 1.0 4.0 0.00 0.00 0.00 43 1013.6
20260505175122 54 46 3.0 4.0 0.00 0.00 0.00 43 1013.5
20260505174636 54 288 2.0 4.0 0.00 0.00 0.00 43 1013.5
20260505174133 54 312 1.0 4.0 0.00 0.00 0.00 43 1013.7
20260505173627 54 139 2.0 4.0 0.00 0.00 0.00 43 1013.8
20260505173141 54 148 2.0 5.0 0.00 0.00 0.00 42 1014.0
20260505172635 54 134 2.0 7.0 0.00 0.00 0.00 42 1014.0
20260505172128 54 130 1.0 7.0 0.00 0.00 0.00 42 1014.0
20260505171622 55 98 2.0 5.0 0.00 0.00 0.00 42 1014.0
20260505171156 55 34 2.0 7.0 0.00 0.00 0.00 42 1014.0
20260505170627 55 167 2.0 8.0 0.00 0.00 0.00 41 1014.1
20260505170141 55 178 2.0 5.0 0.00 0.00 0.00 42 1014.0
20260505165639 55 256 1.0 6.0 0.00 0.00 0.00 42 1014.1
20260505165132 54 151 2.0 8.0 0.00 0.00 0.00 44 1014.2
20260505164646 53 121 3.0 6.0 0.00 0.00 0.00 45 1014.3
20260505164139 53 143 2.0 5.0 0.00 0.00 0.00 44 1014.4
20260505163633 53 176 1.0 3.0 0.00 0.00 0.00 44 1014.5
20260505163147 53 202 0.0 3.0 0.00 0.00 0.00 44 1014.6
20260505162640 53 36 0.0 4.0 0.00 0.00 0.00 45 1014.6
20260505162134 53 321 1.0 5.0 0.00 0.00 0.00 46 1014.5
20260505161627 52 355 2.0 5.0 0.00 0.00 0.00 45 1014.5
20260505161125 52 309 1.0 4.0 0.00 0.00 0.00 46 1014.5
20260505160639 52 189 1.0 4.0 0.00 0.00 0.00 46 1014.7
20260505160153 52 327 1.0 4.0 0.00 0.00 0.00 46 1014.7